TimeCDT,TemperatureF,Dew PointF,Humidity,Sea Level PressureIn,VisibilityMPH,Wind Direction,Wind SpeedMPH,Gust SpeedMPH,PrecipitationIn,Events,Conditions,WindDirDegrees,DateUTC
12:53 AM,50.0,34.0,54,29.82,10.0,West,24.2,35.7,N/A,,Overcast,280,2013-10-12 05:53:00
1:53 AM,46.9,35.1,63,29.85,10.0,West,20.7,25.3,N/A,,Scattered Clouds,270,2013-10-12 06:53:00
2:53 AM,46.9,33.1,59,29.88,10.0,West,20.7,-,N/A,,Mostly Cloudy,280,2013-10-12 07:53:00
3:53 AM,46.9,33.1,59,29.91,10.0,West,23.0,27.6,N/A,,Scattered Clouds,280,2013-10-12 08:53:00
4:53 AM,48.0,32.0,54,29.93,10.0,West,23.0,28.8,N/A,,Overcast,280,2013-10-12 09:53:00
5:53 AM,48.0,32.0,54,29.95,10.0,West,19.6,27.6,N/A,,Overcast,280,2013-10-12 10:53:00
6:53 AM,46.9,33.1,59,29.98,10.0,West,21.9,27.6,N/A,,Scattered Clouds,280,2013-10-12 11:53:00
7:53 AM,45.0,32.0,60,30.01,10.0,West,18.4,-,N/A,,Clear,280,2013-10-12 12:53:00
8:53 AM,45.0,33.1,63,30.04,10.0,West,19.6,31.1,N/A,,Clear,280,2013-10-12 13:53:00
9:53 AM,48.9,33.1,54,30.07,10.0,WNW,23.0,-,N/A,,Clear,290,2013-10-12 14:53:00
10:53 AM,51.1,33.1,50,30.10,10.0,WNW,21.9,-,N/A,,Clear,290,2013-10-12 15:53:00
11:53 AM,54.0,33.1,45,30.11,10.0,West,23.0,28.8,N/A,,Clear,280,2013-10-12 16:53:00
12:53 PM,55.9,30.0,37,30.14,10.0,WNW,23.0,-,N/A,,Clear,300,2013-10-12 17:53:00
1:53 PM,57.0,28.0,33,30.14,10.0,WNW,23.0,28.8,N/A,,Clear,300,2013-10-12 18:53:00
2:53 PM,57.0,30.0,36,30.13,10.0,NW,19.6,-,N/A,,Scattered Clouds,310,2013-10-12 19:53:00
3:53 PM,57.9,28.0,32,30.14,10.0,NW,18.4,-,N/A,,Partly Cloudy,310,2013-10-12 20:53:00
4:53 PM,57.0,27.0,32,30.15,10.0,NW,16.1,25.3,N/A,,Clear,320,2013-10-12 21:53:00
5:53 PM,55.0,26.1,33,30.15,10.0,WNW,12.7,-,N/A,,Clear,300,2013-10-12 22:53:00
6:53 PM,48.0,28.9,48,30.18,10.0,NW,8.1,-,N/A,,Clear,310,2013-10-12 23:53:00
7:53 PM,42.1,30.0,62,30.21,10.0,NW,6.9,-,N/A,,Clear,320,2013-10-13 00:53:00
8:53 PM,44.1,30.0,58,30.22,10.0,NNW,4.6,-,N/A,,Clear,340,2013-10-13 01:53:00
9:53 PM,41.0,30.9,67,30.24,10.0,Calm,Calm,-,N/A,,Clear,0,2013-10-13 02:53:00
10:53 PM,39.0,30.0,70,30.25,10.0,Calm,Calm,-,N/A,,Clear,0,2013-10-13 03:53:00
11:53 PM,39.0,28.9,67,30.26,10.0,Calm,Calm,-,N/A,,Clear,0,2013-10-13 04:53:00